Date String (YYYY-MM-DD hh:mm:ss) UTC,Instrument flags,Ambient pressure (hPa),Sample flow (lpm),Bypass flow (lpm),Sample temperature (°C),Ambient temperature (°C),ASC tube jacket temperature (°C),LED temperature (°C),Box temperature (°C),Sample RH (%),Span deviation,Mass concentration (μg/m³),Mass concentration (μg/m³),Mass concentration (μg/m³)
DateTimeUTC,F1_M11,P_M11,Q1_M11,Q2_M11,T1_M11,T2_M11,T3_M11,T4_M11,T5_M11,U1_M11,ZSPAN_M11,X0_M11,X2_M11,X1_M11
2022-09-10 03:00:00,,0830.1,4.99,0.00,30.0,28.0,00.0,38.9,31.7,27.5,0000.3,0012.80,0008.83,0008.21
2022-09-10 03:01:00,,0830.0,4.99,0.00,30.0,28.0,00.0,38.9,31.7,27.6,0000.5,0012.76,0008.82,0008.21
2022-09-10 03:02:00,,0829.8,5.01,0.00,30.0,28.1,00.0,38.9,31.7,27.7,0001.0,0012.71,0008.79,0008.20
2022-09-10 03:03:00,,0829.8,5.00,0.00,30.0,28.2,00.0,38.8,31.7,27.6,0001.6,0012.50,0008.72,0008.18
2022-09-10 03:04:00,,0829.8,5.00,0.00,30.0,28.2,00.0,38.8,31.7,27.6,0002.1,0012.39,0008.66,0008.16
2022-09-10 03:05:00,,0829.8,5.00,0.00,30.0,28.2,00.0,38.8,31.7,27.6,0002.2,0012.43,0008.62,0008.11
2022-09-10 03:06:00,,0829.8,5.00,0.00,30.0,28.2,00.0,38.8,31.7,27.6,0002.3,0012.40,0008.54,0008.03
2022-09-10 03:07:00,,0829.9,4.99,0.00,30.0,28.2,00.0,38.8,31.7,27.7,0001.9,0012.36,0008.50,0007.99
2022-09-10 03:08:00,,0829.9,5.00,0.00,30.0,28.3,00.0,38.8,31.7,27.8,0001.2,0012.20,0008.43,0007.93
2022-09-10 03:09:00,,0829.9,5.00,0.00,30.0,28.3,00.0,38.8,31.7,27.9,0000.8,0011.41,0008.30,0007.83
2022-09-10 03:10:00,,0830.0,5.00,0.00,30.0,28.4,00.0,38.8,31.8,27.8,0001.2,0010.96,0008.17,0007.73
2022-09-10 03:11:00,,0830.0,5.00,0.00,30.0,28.4,00.0,38.8,31.8,27.7,0001.1,0010.92,0008.13,0007.67
2022-09-10 03:12:00,,0830.0,5.00,0.00,30.0,28.4,00.0,38.8,31.7,27.7,0001.2,0010.80,0008.04,0007.61
2022-09-10 03:13:00,,0830.1,5.00,0.00,30.0,28.4,00.0,38.8,31.8,27.6,0001.7,0010.69,0007.98,0007.57
2022-09-10 03:14:00,,0830.1,4.99,0.00,30.0,28.4,00.0,38.8,31.8,27.7,0001.5,0010.68,0007.94,0007.51
2022-09-10 03:15:00,,0830.0,5.00,0.00,30.0,28.3,00.0,38.8,31.7,27.7,0001.2,0010.46,0007.87,0007.47
2022-09-10 03:16:00,,0830.0,5.01,0.00,30.0,28.2,00.0,38.8,31.8,27.7,0001.3,0010.36,0007.82,0007.45
2022-09-10 03:17:00,,0830.0,5.00,0.00,30.0,28.3,00.0,38.8,31.8,27.7,0000.9,0010.21,0007.77,0007.42
2022-09-10 03:18:00,,0830.0,4.99,0.00,30.0,28.3,00.0,38.8,31.7,27.7,0001.0,0010.02,0007.69,0007.36
2022-09-10 03:19:00,,0829.9,5.00,0.00,30.0,28.3,00.0,38.8,31.7,27.6,0001.7,0009.87,0007.58,0007.28
2022-09-10 03:20:00,,0829.9,5.00,0.00,30.0,28.3,00.0,38.8,31.7,27.7,0001.9,0009.80,0007.56,0007.27
2022-09-10 03:21:00,,0830.0,5.00,0.00,30.0,28.4,00.0,38.8,31.7,27.7,0002.0,0009.91,0007.57,0007.25
2022-09-10 03:22:00,,0829.8,5.00,0.00,30.0,28.3,00.0,38.8,31.7,27.6,0001.7,0009.94,0007.56,0007.24
2022-09-10 03:23:00,,0829.9,5.00,0.00,30.0,28.3,00.0,38.7,31.7,27.6,0001.6,0009.97,0007.54,0007.21
2022-09-10 03:24:00,,0829.9,5.00,0.00,29.9,28.3,00.0,38.7,31.7,27.7,0000.6,0009.93,0007.48,0007.15
2022-09-10 03:25:00,,0830.0,5.00,0.00,29.9,28.3,00.0,38.7,31.7,28.5,0000.0,0009.87,0007.41,0007.09
2022-09-10 03:26:00,,0829.9,5.00,0.00,30.0,28.4,00.0,38.7,31.7,28.5,0000.0,0010.06,0007.36,0007.04
2022-09-10 03:27:00,,0830.0,5.00,0.00,30.0,28.5,00.0,38.8,31.8,28.0,0000.0,0010.04,0007.30,0006.98
2022-09-10 03:28:00,,0829.9,5.00,0.00,30.0,28.5,00.0,38.8,31.7,28.0,0000.0,0010.01,0007.25,0006.94
2022-09-10 03:29:00,,0829.9,5.00,0.00,30.0,28.5,00.0,38.8,31.7,28.0,0000.0,0010.03,0007.23,0006.91
2022-09-10 03:30:00,,0829.9,5.00,0.00,30.0,28.5,00.0,38.8,31.7,28.0,0000.0,0010.03,0007.24,0006.90
2022-09-10 03:31:00,,0829.9,5.00,0.00,30.0,28.5,00.0,38.8,31.8,27.9,0000.0,0010.03,0007.21,0006.86
2022-09-10 03:32:00,,0829.9,4.99,0.00,30.0,28.4,00.0,38.8,31.7,27.9,0000.0,0009.88,0007.11,0006.79
2022-09-10 03:33:00,,0829.9,5.00,0.00,30.0,28.2,00.0,38.8,31.7,27.9,0000.0,0009.82,0007.03,0006.72
2022-09-10 03:34:00,,0829.9,5.00,0.00,30.0,28.2,00.0,38.7,31.7,28.0,0000.0,0009.75,0006.97,0006.65
2022-09-10 03:35:00,,0829.9,5.01,0.00,30.0,28.3,00.0,38.8,31.7,28.0,0000.0,0009.70,0006.92,0006.60
2022-09-10 03:36:00,,0829.8,4.99,0.00,30.0,28.3,00.0,38.8,31.7,28.0,0000.0,0009.61,0006.89,0006.58
2022-09-10 03:37:00,,0829.8,5.00,0.00,30.0,28.2,00.0,38.7,31.7,28.0,0000.0,0009.29,0006.86,0006.56
2022-09-10 03:38:00,,0830.0,5.00,0.00,29.9,28.1,00.0,38.7,31.7,28.1,0000.0,0009.27,0006.86,0006.55
2022-09-10 03:39:00,,0829.8,5.01,0.00,29.9,28.1,00.0,38.7,31.7,28.2,0000.0,0009.19,0006.82,0006.51
2022-09-10 03:40:00,,0829.9,5.00,0.00,29.9,28.1,00.0,38.7,31.7,28.2,0000.0,0009.12,0006.77,0006.48
2022-09-10 03:41:00,,0829.9,4.99,0.00,29.9,28.2,00.0,38.7,31.7,28.2,0000.0,0009.02,0006.71,0006.45
2022-09-10 03:42:00,,0829.9,5.00,0.00,29.9,28.2,00.0,38.7,31.7,28.2,0000.0,0008.91,0006.65,0006.41
2022-09-10 03:43:00,,0829.9,5.00,0.00,29.9,28.3,00.0,38.7,31.7,28.1,0000.0,0008.94,0006.69,0006.44
2022-09-10 03:44:00,,0829.8,5.01,0.00,29.9,28.4,00.0,38.7,31.7,28.0,0000.0,0008.84,0006.69,0006.47
2022-09-10 03:45:00,,0829.8,5.00,0.00,29.9,28.3,00.0,38.7,31.7,28.1,0000.0,0008.77,0006.67,0006.46
2022-09-10 03:46:00,,0829.8,5.00,0.00,29.9,28.3,00.0,38.7,31.7,28.1,0000.0,0008.71,0006.66,0006.47
2022-09-10 03:47:00,,0829.8,5.00,0.00,29.9,28.3,00.0,38.7,31.7,28.1,0000.0,0008.68,0006.64,0006.46
2022-09-10 03:48:00,,0829.8,5.00,0.00,29.9,28.3,00.0,38.7,31.7,28.0,0000.0,0008.74,0006.65,0006.47
2022-09-10 03:49:00,,0829.8,5.00,0.00,29.9,28.3,00.0,38.7,31.7,28.1,0000.0,0008.74,0006.66,0006.49
2022-09-10 03:50:00,,0829.8,5.00,0.00,29.9,28.3,00.0,38.7,31.7,28.0,0000.0,0008.82,0006.71,0006.54
2022-09-10 03:51:00,,0829.9,5.00,0.00,29.9,28.3,00.0,38.7,31.6,28.0,0000.0,0008.78,0006.74,0006.58
2022-09-10 03:52:00,,0829.8,5.00,0.00,29.9,28.3,00.0,38.7,31.6,27.9,0000.0,0008.84,0006.80,0006.62
2022-09-10 03:53:00,,0829.8,4.99,0.00,29.9,28.3,00.0,38.7,31.6,27.9,0000.0,0008.89,0006.87,0006.68
2022-09-10 03:54:00,,0829.8,5.01,0.00,29.9,28.2,00.0,38.7,31.6,27.9,0000.0,0008.86,0006.87,0006.70
2022-09-10 03:55:00,,0829.8,5.01,0.00,29.9,28.3,00.0,38.7,31.7,28.0,0000.0,0008.89,0006.89,0006.70
2022-09-10 03:56:00,,0829.8,4.99,0.00,29.9,28.3,00.0,38.7,31.7,28.0,0000.0,0008.96,0006.94,0006.73
2022-09-10 03:57:00,,0829.8,5.01,0.00,29.9,28.4,00.0,38.7,31.7,28.4,0000.0,0008.98,0006.95,0006.74
2022-09-10 03:58:00,,0829.8,5.00,0.00,29.9,28.3,00.0,38.7,31.7,28.9,0000.0,0008.98,0006.94,0006.73
2022-09-10 03:59:00,,0829.8,5.00,0.00,29.9,28.3,00.0,38.6,31.7,28.4,0000.0,0008.88,0006.91,0006.70
